N7QNM-13 Weather Reports


time (UTC)temp
C
wind
direction
speed
KPH
gust
KPH
rain 1hr
cm
rain 24hr
cm
rain mn
cm
humidity
%
barometer
mb
20260505161103 22 45 3.2 9.7 0.00 0.00 0.00 48 1010.5
20260505153104 21 293 0.0 4.8 0.00 0.00 0.00 49 1010.4
20260505152103 21 294 3.2 11.3 0.00 0.00 0.00 48 1010.3
20260505151124 21 302 0.0 6.4 0.00 0.00 0.00 52 1010.2
20260505130124 13 0.0 0.0 0.00 0.00 0.00 72 1008.8
20260505124105 15 70 0.0 3.2 0.00 0.00 0.00 65 1008.4
20260505123104 15 243 0.0 3.2 0.00 0.00 0.00 64 1008.3
20260505122105 15 0.0 0.0 0.00 0.00 0.00 62 1008.2
20260505121105 15 154 0.0 1.6 0.00 0.00 0.00 63 1008.1
20260505120105 15 133 0.0 3.2 0.00 0.00 0.00 62 1008.0
20260505115105 16 253 0.0 3.2 0.00 0.00 0.00 60 1007.9
20260505114105 16 0.0 0.0 0.00 0.00 0.00 58 1007.9
20260505113106 16 129 0.0 3.2 0.00 0.00 0.00 58 1007.8
20260505112110 17 105 0.0 4.8 0.00 0.00 0.00 57 1007.7
20260505111107 17 0.0 0.0 0.00 0.00 0.00 56 1007.6
20260505110126 17 128 0.0 3.2 0.00 0.00 0.00 54 1007.5
20260505102106 20 270 6.4 9.7 0.00 0.00 0.00 48 1007.1
20260505101107 21 261 8.0 11.3 0.00 0.00 0.00 46 1007.0
20260505100107 21 259 11.3 19.3 0.00 0.00 0.00 43 1007.0
20260505095107 21 241 12.9 20.9 0.00 0.00 0.00 42 1006.9
20260505094107 21 244 11.3 22.5 0.00 0.00 0.00 43 1006.8
20260505093107 20 254 8.0 17.7 0.00 0.00 0.00 45 1006.8
20260505092127 19 250 9.7 19.3 0.00 0.00 0.00 46 1006.8
20260505091107 18 250 3.2 8.0 0.00 0.00 0.00 49 1006.8
20260505090107 19 0.0 0.0 0.00 0.00 0.00 48 1006.8
20260505085107 19 282 0.0 6.4 0.00 0.00 0.00 47 1006.7
20260505084108 19 241 8.0 11.3 0.00 0.00 0.00 49 1006.7
20260505083107 20 222 0.0 3.2 0.00 0.00 0.00 47 1006.8
20260505082108 21 43 0.0 6.4 0.00 0.00 0.00 45 1006.9
20260505081107 22 53 4.8 9.7 0.00 0.00 0.00 43 1007.0
20260505080108 23 276 8.0 12.9 0.00 0.00 0.00 38 1006.5
20260505075108 23 251 11.3 24.1 0.00 0.00 0.00 37 1006.4
20260505074109 23 242 8.0 16.1 0.00 0.00 0.00 37 1006.2
20260505073109 23 235 11.3 19.3 0.00 0.00 0.00 37 1006.1
20260505072130 23 231 11.3 19.3 0.00 0.00 0.00 37 1006.0
20260505071109 23 234 12.9 20.9 0.00 0.00 0.00 38 1006.0
20260505070129 23 239 9.7 16.1 0.00 0.00 0.00 39 1006.0
20260505065108 23 234 11.3 17.7 0.00 0.00 0.00 38 1006.0
20260505064110 23 233 9.7 17.7 0.00 0.00 0.00 38 1005.9
20260505063109 22 237 9.7 17.7 0.00 0.00 0.00 39 1005.8
20260505062109 19 246 9.7 17.7 0.00 0.00 0.00 46 1005.8
20260505061110 18 260 0.0 4.8 0.00 0.00 0.00 53 1005.9
20260505060109 18 262 0.0 3.2 0.00 0.00 0.00 51 1005.9
20260505055109 18 86 1.6 8.0 0.00 0.00 0.00 53 1005.9
20260505054110 20 58 3.2 9.7 0.00 0.00 0.00 51 1005.8
20260505053109 21 214 0.0 3.2 0.00 0.00 0.00 44 1005.6
20260505052110 21 198 0.0 3.2 0.00 0.00 0.00 43 1005.5
20260505051110 21 266 0.0 3.2 0.00 0.00 0.00 44 1005.5
20260505050130 22 278 1.6 6.4 0.00 0.00 0.00 44 1005.5
20260505041110 23 284 0.0 1.6 0.00 0.00 0.00 40 1004.9
20260505040131 24 294 3.2 8.0 0.00 0.00 0.00 39 1004.7
20260505035111 25 292 0.0 4.8 0.00 0.00 0.00 37 1004.7
20260505034112 26 184 0.0 8.0 0.00 0.00 0.00 34 1004.5
20260505033111 25 106 1.6 14.5 0.00 0.00 0.00 34 1004.4
20260505032111 25 93 0.0 6.4 0.00 0.00 0.00 34 1004.3
20260505031112 26 147 0.0 6.4 0.00 0.00 0.00 33 1004.3
20260505030111 26 281 0.0 4.8 0.00 0.00 0.00 32 1004.2
20260505025112 27 174 1.6 6.4 0.00 0.00 0.00 32 1004.1
20260505024112 28 91 0.0 6.4 0.00 0.00 0.00 33 1004.2
20260505023112 31 151 1.6 6.4 0.00 0.00 0.00 31 1004.2
20260505022132 33 157 1.6 6.4 0.00 0.00 0.00 27 1004.2
20260505021112 33 257 0.0 1.6 0.00 0.00 0.00 25 1004.2
20260505020233 33 196 0.0 1.6 0.00 0.00 0.00 25 1004.1
20260505015112 32 251 0.0 1.6 0.00 0.00 0.00 25 1004.1
20260505014133 32 254 3.2 6.4 0.00 0.00 0.00 26 1004.2
20260505013112 32 0.0 0.0 0.00 0.00 0.00 27 1004.3
20260505012113 32 50 3.2 9.7 0.00 0.00 0.00 28 1004.4
20260505011113 32 44 0.0 8.0 0.00 0.00 0.00 27 1004.5
20260505010112 32 166 3.2 6.4 0.00 0.00 0.00 27 1004.5
20260505005113 32 92 1.6 8.0 0.00 0.00 0.00 26 1004.6
20260505004113 32 335 0.0 1.6 0.00 0.00 0.00 27 1004.6
20260505003134 32 331 0.0 1.6 0.00 0.00 0.00 27 1004.6
20260505002113 32 47 1.6 8.0 0.00 0.00 0.00 28 1004.6
20260505001113 31 97 3.2 8.0 0.00 0.00 0.00 28 1004.7
20260505000113 31 47 6.4 16.1 0.00 0.00 0.00 28 1004.7
20260504235114 31 82 0.0 4.8 0.00 0.00 0.00 27 1004.7
20260504234114 31 278 4.8 11.3 0.00 0.00 0.00 28 1004.7
20260504233114 31 284 9.7 16.1 0.00 0.00 0.00 28 1004.8
20260504232114 31 304 4.8 14.5 0.00 0.00 0.00 28 1004.9
20260504231114 31 20 3.2 14.5 0.00 0.00 0.00 28 1005.0
20260504230114 31 215 6.4 12.9 0.00 0.00 0.00 28 1005.0
20260504225114 31 232 4.8 11.3 0.00 0.00 0.00 27 1005.1
20260504224115 30 272 8.0 14.5 0.00 0.00 0.00 27 1005.2
20260504223115 30 231 12.9 22.5 0.00 0.00 0.00 28 1005.3
20260504222135 31 267 11.3 24.1 0.00 0.00 0.00 28 1005.4
20260504221135 30 270 1.6 8.0 0.00 0.00 0.00 27 1005.6
20260504220135 30 309 4.8 17.7 0.00 0.00 0.00 28 1005.7
20260504215115 30 323 1.6 6.4 0.00 0.00 0.00 28 1005.8
20260504214115 30 289 3.2 16.1 0.00 0.00 0.00 28 1005.9
20260504213115 30 356 1.6 9.7 0.00 0.00 0.00 28 1006.1
20260504212116 30 63 3.2 11.3 0.00 0.00 0.00 29 1006.2
20260504211116 30 21 1.6 6.4 0.00 0.00 0.00 30 1006.3
20260504210115 29 59 6.4 16.1 0.00 0.00 0.00 31 1006.3
20260504205116 30 61 8.0 17.7 0.00 0.00 0.00 32 1006.5
20260504204116 30 65 6.4 25.7 0.00 0.00 0.00 31 1006.6
20260504203116 30 67 3.2 12.9 0.00 0.00 0.00 31 1006.8
20260504202116 30 171 3.2 11.3 0.00 0.00 0.00 32 1006.9
20260504201116 29 151 0.0 4.8 0.00 0.00 0.00 33 1007.0
20260504200117 30 343 1.6 6.4 0.00 0.00 0.00 33 1007.1
20260504195136 29 229 3.2 9.7 0.00 0.00 0.00 32 1007.2
20260504194116 29 74 4.8 12.9 0.00 0.00 0.00 33 1007.2
20260504193137 28 42 1.6 9.7 0.00 0.00 0.00 32 1007.3
20260504192118 28 92 1.6 8.0 0.00 0.00 0.00 33 1007.3
20260504191137 28 316 0.0 4.8 0.00 0.00 0.00 33 1007.4
20260504190018 28 63 3.2 11.3 0.00 0.00 0.00 33 1007.5
20260504185017 27 171 4.8 14.5 0.00 0.00 0.00 34 1007.6
20260504184117 27 285 6.4 16.1 0.00 0.00 0.00 34 1007.6
20260504183117 27 268 6.4 11.3 0.00 0.00 0.00 35 1007.7
20260504182117 27 267 4.8 11.3 0.00 0.00 0.00 36 1007.8
20260504181018 27 296 8.0 16.1 0.00 0.00 0.00 37 1007.9
20260504180018 26 284 3.2 9.7 0.00 0.00 0.00 39 1008.0
20260504175018 26 292 8.0 12.9 0.00 0.00 0.00 39 1007.9
20260504174018 25 289 3.2 9.7 0.00 0.00 0.00 40 1008.1
20260504173138 25 289 3.2 11.3 0.00 0.00 0.00 39 1008.1
20260504172018 24 295 6.4 12.9 0.00 0.00 0.00 41 1008.1
20260504171018 23 293 6.4 12.9 0.00 0.00 0.00 41 1008.1